Stündliche Wetter Junín

Heute, 3 März, Mittwoch

Zeit Temperatur Niederschläge Wind Luftdruck Luftfeuchtigkeit
00:00 +22°C° 0 mm 3 m/S 752 mmHg 90%
01:00 +22°C° 0 mm 3 m/S 752 mmHg 92%
02:00 +22°C° 0 mm 3 m/S 752 mmHg 94%
03:00 +21°C° 0.1 mm 3 m/S 752 mmHg 95%
04:00 +21°C° 0.1 mm 2 m/S 752 mmHg 96%
05:00 +20°C° 0.1 mm 2 m/S 752 mmHg 96%
06:00 +21°C° 0 mm 3 m/S 753 mmHg 94%
07:00 +22°C° 0 mm 3 m/S 753 mmHg 91%
08:00 +23°C° 0 mm 4 m/S 754 mmHg 89%
09:00 +27°C° 0.3 mm 3 m/S 754 mmHg 77%
10:00 +29°C° 0.3 mm 3 m/S 753 mmHg 66%
11:00 +33°C° 0.3 mm 3 m/S 753 mmHg 55%
12:00 +34°C° 0.2 mm 3 m/S 753 mmHg 49%
13:00 +35°C° 0.2 mm 4 m/S 752 mmHg 43%
14:00 +36°C° 0.2 mm 4 m/S 752 mmHg 37%
15:00 +35°C° 0 mm 5 m/S 751 mmHg 38%
16:00 +35°C° 0 mm 5 m/S 751 mmHg 39%
17:00 +35°C° 0 mm 5 m/S 750 mmHg 40%
18:00 +32°C° 0 mm 5 m/S 751 mmHg 49%
19:00 +29°C° 0 mm 4 m/S 751 mmHg 57%
20:00 +27°C° 0 mm 4 m/S 751 mmHg 66%
21:00 +26°C° 0 mm 4 m/S 751 mmHg 72%
22:00 +25°C° 0 mm 3 m/S 752 mmHg 77%
23:00 +24°C° 0 mm 3 m/S 752 mmHg 83%

Morgen, 4 März, Donnerstag

Zeit Temperatur Niederschläge Wind Luftdruck Luftfeuchtigkeit
00:00 +22°C° 0 mm 3 m/S 752 mmHg 87%
01:00 +22°C° 0 mm 3 m/S 751 mmHg 91%
02:00 +21°C° 0 mm 2 m/S 751 mmHg 96%
03:00 +21°C° 0.2 mm 2 m/S 751 mmHg 96%
04:00 +20°C° 0.2 mm 2 m/S 751 mmHg 97%
05:00 +20°C° 0.2 mm 2 m/S 751 mmHg 97%
06:00 +21°C° 0 mm 2 m/S 751 mmHg 94%
07:00 +24°C° 0 mm 2 m/S 751 mmHg 91%
08:00 +25°C° 0 mm 2 m/S 752 mmHg 88%
09:00 +28°C° 0.2 mm 2 m/S 752 mmHg 74%
10:00 +31°C° 0.2 mm 1 m/S 752 mmHg 60%
11:00 +34°C° 0.2 mm 1 m/S 752 mmHg 45%
12:00 +36°C° 0.2 mm 2 m/S 751 mmHg 43%
13:00 +36°C° 0.2 mm 3 m/S 751 mmHg 40%
14:00 +36°C° 0.2 mm 4 m/S 750 mmHg 37%
15:00 +36°C° 0 mm 4 m/S 749 mmHg 36%
16:00 +36°C° 0 mm 4 m/S 749 mmHg 36%
17:00 +36°C° 0 mm 4 m/S 748 mmHg 35%
18:00 +34°C° 0 mm 4 m/S 749 mmHg 40%
19:00 +31°C° 0 mm 3 m/S 749 mmHg 45%
20:00 +29°C° 0 mm 3 m/S 749 mmHg 50%
21:00 +27°C° 0 mm 3 m/S 749 mmHg 56%
22:00 +26°C° 0 mm 3 m/S 750 mmHg 62%
23:00 +24°C° 0 mm 3 m/S 750 mmHg 68%

übermorgen, 5 März, Freitag

Zeit Temperatur Niederschläge Wind Luftdruck Luftfeuchtigkeit
00:00 +23°C° 0 mm 2 m/S 750 mmHg 75%
01:00 +23°C° 0 mm 2 m/S 750 mmHg 83%
02:00 +21°C° 0 mm 2 m/S 750 mmHg 91%
03:00 +20°C° 0 mm 2 m/S 750 mmHg 93%
04:00 +20°C° 0 mm 2 m/S 751 mmHg 94%
05:00 +20°C° 0 mm 2 m/S 751 mmHg 96%
06:00 +21°C° 0 mm 3 m/S 751 mmHg 89%
07:00 +22°C° 0 mm 3 m/S 751 mmHg 83%
08:00 +25°C° 0 mm 3 m/S 751 mmHg 77%
09:00 +27°C° 0 mm 3 m/S 751 mmHg 65%
10:00 +30°C° 0 mm 3 m/S 751 mmHg 54%
11:00 +34°C° 0 mm 3 m/S 751 mmHg 43%
12:00 +35°C° 0 mm 3 m/S 750 mmHg 38%
13:00 +36°C° 0 mm 4 m/S 750 mmHg 33%
14:00 +38°C° 0 mm 4 m/S 749 mmHg 28%
15:00 +37°C° 0 mm 5 m/S 749 mmHg 27%
16:00 +37°C° 0 mm 5 m/S 748 mmHg 26%
17:00 +37°C° 0 mm 5 m/S 747 mmHg 25%
18:00 +34°C° 0 mm 4 m/S 748 mmHg 29%
19:00 +30°C° 0 mm 4 m/S 748 mmHg 34%
20:00 +27°C° 0 mm 3 m/S 748 mmHg 38%
21:00 +25°C° 0 mm 3 m/S 749 mmHg 42%
22:00 +24°C° 0 mm 2 m/S 749 mmHg 45%
23:00 +21°C° 0 mm 2 m/S 749 mmHg 49%

6 März, Samstag

Zeit Temperatur Niederschläge Wind Luftdruck Luftfeuchtigkeit
00:00 +21°C° 0 mm 2 m/S 749 mmHg 58%
01:00 +20°C° 0 mm 2 m/S 749 mmHg 67%
02:00 +19°C° 0 mm 2 m/S 749 mmHg 76%
03:00 +19°C° 0 mm 3 m/S 749 mmHg 82%
04:00 +18°C° 0 mm 3 m/S 749 mmHg 87%
05:00 +18°C° 0 mm 3 m/S 749 mmHg 92%
06:00 +20°C° 0 mm 3 m/S 750 mmHg 82%
07:00 +22°C° 0 mm 3 m/S 750 mmHg 72%
08:00 +25°C° 0 mm 3 m/S 750 mmHg 62%
09:00 +28°C° 0 mm 3 m/S 750 mmHg 52%
10:00 +31°C° 0 mm 3 m/S 750 mmHg 41%
11:00 +36°C° 0 mm 2 m/S 750 mmHg 31%
12:00 +37°C° 0 mm 2 m/S 750 mmHg 28%
13:00 +39°C° 0 mm 2 m/S 749 mmHg 25%
14:00 +40°C° 0 mm 2 m/S 749 mmHg 22%
15:00 +40°C° 0 mm 3 m/S 748 mmHg 22%
16:00 +39°C° 0 mm 3 m/S 748 mmHg 23%
17:00 +40°C° 0 mm 4 m/S 748 mmHg 24%
18:00 +36°C° 0 mm 4 m/S 748 mmHg 28%
19:00 +33°C° 0 mm 4 m/S 748 mmHg 32%
20:00 +30°C° 0 mm 5 m/S 748 mmHg 36%
21:00 +29°C° 0 mm 5 m/S 749 mmHg 36%
22:00 +28°C° 0 mm 5 m/S 749 mmHg 37%
23:00 +27°C° 0 mm 5 m/S 750 mmHg 37%

7 März, Sonntag

Zeit Temperatur Niederschläge Wind Luftdruck Luftfeuchtigkeit
00:00 +26°C° 0 mm 5 m/S 750 mmHg 40%
01:00 +25°C° 0 mm 4 m/S 750 mmHg 42%
02:00 +23°C° 0 mm 4 m/S 750 mmHg 45%
03:00 +22°C° 0 mm 3 m/S 750 mmHg 47%
04:00 +21°C° 0 mm 3 m/S 750 mmHg 50%
05:00 +20°C° 0 mm 2 m/S 750 mmHg 52%
06:00 +24°C° 0 mm 3 m/S 751 mmHg 46%
07:00 +26°C° 0 mm 3 m/S 751 mmHg 39%
08:00 +28°C° 0 mm 3 m/S 751 mmHg 33%
09:00 +33°C° 0 mm 3 m/S 751 mmHg 28%
10:00 +36°C° 0 mm 3 m/S 751 mmHg 23%
11:00 +39°C° 0 mm 3 m/S 750 mmHg 18%
12:00 +40°C° 0 mm 3 m/S 750 mmHg 17%
13:00 +42°C° 0 mm 3 m/S 749 mmHg 17%
14:00 +43°C° 0 mm 3 m/S 749 mmHg 16%
15:00 +43°C° 0 mm 4 m/S 748 mmHg 16%
16:00 +43°C° 0 mm 4 m/S 748 mmHg 16%
17:00 +42°C° 0 mm 4 m/S 747 mmHg 16%
18:00 +38°C° 0 mm 4 m/S 747 mmHg 20%
19:00 +36°C° 0 mm 5 m/S 747 mmHg 24%
20:00 +33°C° 0 mm 5 m/S 748 mmHg 27%
21:00 +32°C° 0 mm 5 m/S 748 mmHg 28%
22:00 +30°C° 0 mm 5 m/S 748 mmHg 30%
23:00 +29°C° 0 mm 5 m/S 748 mmHg 31%

8 März, Montag

Zeit Temperatur Niederschläge Wind Luftdruck Luftfeuchtigkeit
00:00 +28°C° 0 mm 5 m/S 749 mmHg 33%
01:00 +27°C° 0 mm 4 m/S 749 mmHg 36%
02:00 +26°C° 0 mm 4 m/S 749 mmHg 38%
03:00 +25°C° 0 mm 3 m/S 749 mmHg 40%
04:00 +25°C° 0 mm 3 m/S 749 mmHg 42%
05:00 +25°C° 0 mm 2 m/S 750 mmHg 44%
06:00 +26°C° 0 mm 3 m/S 750 mmHg 41%
07:00 +27°C° 0 mm 3 m/S 750 mmHg 39%
08:00 +29°C° 0 mm 3 m/S 751 mmHg 36%
09:00 +33°C° 0 mm 3 m/S 751 mmHg 30%
10:00 +36°C° 0 mm 3 m/S 750 mmHg 25%
11:00 +40°C° 0 mm 3 m/S 750 mmHg 19%
12:00 +42°C° 0 mm 4 m/S 750 mmHg 17%
13:00 +44°C° 0 mm 4 m/S 749 mmHg 15%
14:00 +45°C° 0 mm 4 m/S 748 mmHg 13%
15:00 +45°C° 0 mm 4 m/S 748 mmHg 14%
16:00 +45°C° 0 mm 5 m/S 747 mmHg 14%
17:00 +43°C° 0 mm 5 m/S 747 mmHg 15%
18:00 +41°C° 0 mm 6 m/S 747 mmHg 18%
19:00 +38°C° 0 mm 6 m/S 747 mmHg 21%
20:00 +35°C° 0 mm 6 m/S 747 mmHg 24%
21:00 +34°C° 0 mm 6 m/S 747 mmHg 27%
22:00 +33°C° 0 mm 7 m/S 748 mmHg 29%
23:00 +32°C° 0 mm 7 m/S 748 mmHg 32%
Mehr zeigen

Wir brauchen deine Erlaubnis

Meteoprog und unser Service Anbieter werden persönliche Daten aufbewahren, so wie Cookies, Geräte Bezeichnung oder ähnliche Technologien von deinem Gerät und Prozess, so wie Persönliche Daten Inhalte und Werbungen, genauso wie social Media und den Verkehr zu analysieren.

  • Aufbewahrung und/oder Zugang zu deiner Geräte Informationen.

    Cookies, Geräte Bezeichnung oder andere Informationen, können aufbewahrt oder Zugang zu deinem Gerät erhalten, für den Grund, der oben angegeben wird.

  • Personalisierte Werbung und Inhalte, Messungen, Einblick in das Publikum und Produkt Entwicklung.

    Werbungen und Inhalte können personalisiert werden, basierend auf ein Profil. Mehr Daten können besser personalisierte Werbungen und Inhalte hinzufügen. Werbung und Inhalte können gezeigt und gemessen werden. Einblicke über das Publikum, welche die Werbung gesehen haben und den Inhalt, können abgeleitet werden. So wie Daten können genutzt werden, um es zu verbessern oder die Benutzer Erfahrung zu verbessern das System und die Software.

Wenn du “Ich stimme zu” klickst, erlaubst du uns, die Cookies zu benutzen die Geräte Bezeichnung, den Web oder ähnliche Technologien zu benutzen. Deine Settings, können in deinem Gerät bei deinem Browser geändert werden.

Für den bestimmten Zweck, berechtigten Interessen beruhen darauf, mehr als auf den Inhalt. Du kannst mehr darüber in unseren Privaten und Cookie Politik lesen.